Regional Weather Roundup
Issued by NWS Memphis, TN

Home | Current Version | Previous Version | Text Only | Print | Product List | Glossary On
Versions: 1 2 3 4 5 6 7 8 9 10 11 12 13 14 15 16 17 18 19 20 21 22 23 24 25 26 27 28 29 30 31 32 33 34 35 36 37 38 39 40 41 42 43 44 45 46 47 48 49 50
000
ASUS44 KMEG 050310
RWRMEG
MEMPHIS CWA HOURLY WEATHER ROUNDUP
NATIONAL WEATHER SERVICE MEMPHIS TN
900 PM CST WED MAR 04 2015

...WEST TENNESSEE...

CITY           SKY/WX    TMP DP  RH WIND       PRES   REMARKS
MEMPHIS INTL   LGTSLEET  28  25  86 N16       30.15R FOG     WCI  17
NWS MEMPHIS      N/A     28 N/A N/A MISG        N/A
JACKSON        LGT SNOW  28  25  88 N17       30.19R FOG     WCI  16
LEXINGTON      CLOUDY    28  27  93 N14       30.11S WCI  17
SAVANNAH       CLOUDY    32  32 100 N15       30.09R WCI  22
DYERSBURG      CLOUDY    23   9  54 N14G29    30.27R WCI  11
UNION CITY     CLOUDY    19  19 100 N15       30.23F WCI   5
PARIS          CLOUDY    19  18  93 N14       30.23R WCI   6


...EASTERN ARKANSAS...

CITY           SKY/WX    TMP DP  RH WIND       PRES   REMARKS
JONESBORO      LGT SNOW  22  21  96 N13G21    30.25R VSB 3/4 WCI  10
BATESVILLE     CLOUDY    21  18  86 NW8G16    30.30R VSB 1   WCI  12
NEWPORT        LGT SNOW  23  21  93 N24       30.29R FOG     WCI   7
WALNUT RIDGE   CLOUDY    21  18  86 N26G33    30.30S VSB 3/4 WCI   4
BLYTHEVILLE    LGT SNOW  23  21  92 N31G37    30.26R FOG     WCI   5
SEARCY         LGT SNOW  25  22  88 N17G26    30.24F FOG     WCI  12
STUTTGART      CLOUDY    28  25  86 N24G32    30.20R WCI  14
PINE BLUFF     MIX PCPN  31  28  89 N20G32    30.19R FOG     WCI  19
MONTICELLO     LGT RAIN  34  30  85 N14G30    30.10R WCI  25


...NORTH MISSISSIPPI...

CITY           SKY/WX    TMP DP  RH WIND       PRES   REMARKS
TUPELO         CLOUDY    38  34  85 NE21G28   30.06R WCI  28
OLIVE BRANCH   CLOUDY    30  30 100 CALM      30.14S
TUNICA         LGT SNOW  30  30 100 N13       30.15R WCI  20
CORINTH        CLOUDY    36  32  87 N14G23    30.09R WCI  27
GREENWOOD      CLOUDY    39  36  87 N20G26    30.03R WCI  30
COLUMBUS       CLOUDY    43  41  91 N14       30.00R
STARKVILLE     CLOUDY    41  39  93 N9        30.00R
GOLDEN TRIANGL CLOUDY    45  39  81 N14       29.98R


...SOUTHEAST MISSOURI...

CITY           SKY/WX    TMP DP  RH WIND       PRES   REMARKS
WEST PLAINS    CLOUDY    20  10  65 N14       30.27R WCI   7
POPLAR BLUFF   FOG       20  16  84 N13       30.33R VSB 1   WCI   7
CAPE GIRARDEAU CLOUDY    19  16  88 N17       30.33S FOG     WCI   4


...NORTHWEST ALABAMA...

CITY           SKY/WX    TMP DP  RH WIND       PRES   REMARKS
MUSCLE SHOALS  LGT RAIN  39  34  82 N9        30.06R WCI  33


...MIDDLE TENNESSEE...

CITY           SKY/WX    TMP DP  RH WIND       PRES   REMARKS
NASHVILLE      LGT RAIN  32  30  92 N17       30.12R WCI  21
CLARKSVILLE    LGT SNOW  24  21  88 N14       30.18S FOG     WCI  12
COLUMBIA       CLOUDY   N/A N/A N/A N9        30.08R


...WESTERN KENTUCKY...

CITY           SKY/WX    TMP DP  RH WIND       PRES   REMARKS
PADUCAH        SNOW      19  16  88 N22       30.29R VSB 1/2 WCI   2
FORT CAMPBELL  LGTSLEET  23  20  87 N13G22    30.19R WCI  12


...CENTRAL ARKANSAS...

CITY           SKY/WX    TMP DP  RH WIND       PRES   REMARKS
LITTLE ROCK    HVYSLEET  29  25  85 N18G29    30.23R FOG     WCI  16


SKY/WX REPORTED AS FAIR MEANS FEW OR NO CLOUDS BELOW
12 THOUSAND FEET.




USA.gov is the U.S. government's official web portal to all federal, state and local government web resources and services.